Flag for Germany Weather past 2 weeks in Konstanz, Baden-Württemberg, Germany

Now
62 °F

Partly sunny.


Feels Like: 62 °F
Forecast: 38 / 45 °F
Wind: 6 mph from West

Location: Konstanz

Current Time: Oct 21, 2014 at 12:57:08 PM

Latest Report: Oct 21, 2014 at 12:00 PM


Visibility: 22 mi

Pressure: 29.93 "Hg

Humidity: 75%

Dew point: 54 °F

Location of KonstanzLocation

Historic Weather in Konstanz — Graph

°F

Konstanz temperature yesterday

Maximum temperature yesterday: 72 °F (at 3:00 PM)
Minimum temperature yesterday: 54 °F (at 8:00 AM)
Average temperature yesterday: 62 °F

Past Weeks' High & Low Weather Summary

 TemperatureHumidityPressure
High76 °F (Oct 9, 5:00 PM)100% (Oct 9, 2:00 AM)30.27 "Hg (Oct 9, 2:00 AM)
Low50 °F (Oct 14, 8:00 AM)49% (Oct 9, 3:00 PM)29.75 "Hg (Oct 12, 5:00 PM)
Average59 °F87%29.94 "Hg
* Reported Oct 6 11:00 AM — Oct 21 11:00 AM, Konstanz, Weather by CustomWeather, © 2014

Note: Actual official high and low records may vary slightly from our data, if they occured in-between our weather recording intervals... More about our weather records

Advertising

Konstanz weather history for previous 24 hours

 ConditionsComfort  
Time TempWeatherWind HumidityBarometerVisibility
11:00 AM
Oct 21
62 °FPartly sunny.5 mph80%29.94 "Hg16 mi
10:00 AM58 °FLow clouds.3 mph89%29.97 "Hg11 mi
9:00 AM58 °FOvercast.3 mph89%29.96 "Hg6 mi
8:00 AM58 °FSprinkles. Overcast.3 mph90%29.96 "Hg10 mi
7:00 AM59 °FOvercast.3 mph87%29.96 "Hg19 mi
6:00 AM59 °FOvercast.3 mph89%29.97 "Hg19 mi
5:00 AM59 °FOvercast.2 mph91%29.98 "Hg28 mi
4:00 AM59 °FOvercast.3 mph90%30.00 "Hg43 mi
3:00 AM59 °FPassing clouds.2 mph90%30.01 "Hg43 mi
2:00 AM59 °FPassing clouds.3 mph91%30.01 "Hg43 mi
1:00 AM59 °FPassing clouds.5 mph92%30.01 "Hg37 mi
12:00 AM60 °FLight rain. Light fog.5 mph94%30.02 "Hg6 mi
11:00 PM
Oct 20
61 °FLight rain. Passing clouds.5 mph93%30.04 "Hg4 mi
10:00 PM62 °FRain. Passing clouds.1 mph96%30.01 "Hg4 mi
9:00 PM64 °FLight rain. Overcast.2 mph81%30.03 "Hg7 mi
8:00 PM65 °FOvercast.1 mph80%30.01 "Hg12 mi
7:00 PM66 °FOvercast.2 mph73%30.02 "Hg19 mi
6:00 PM68 °FOvercast.2 mph70%30.01 "Hg22 mi
5:00 PM70 °FOvercast.5 mph64%30.02 "Hg19 mi
4:00 PM72 °FOvercast.6 mph62%30.03 "Hg16 mi
3:00 PM72 °FPartly sunny.6 mph60%30.05 "Hg16 mi
2:00 PM70 °FOvercast.5 mph62%30.08 "Hg19 mi
1:00 PM66 °FPartly sunny.1 mph70%30.12 "Hg19 mi
12:00 PM62 °FPartly sunny.2 mph81%30.15 "Hg19 mi
Weather by CustomWeather, © 2014

See weather overviewHow to use our weather pages